Preview of NWS' New Version of Forecast
This preview is not operational and should not be used for support decisions.

Regional Weather Roundup (RWR)

Issued by National Weather Service (NWS)

                            
000
ASCA42 TJSJ 211910
RWRPR 
PUERTO RICO/U.S. VIRGIN ISLANDS HOURLY WEATHER ROUNDUP
NATIONAL WEATHER SERVICE SAN JUAN PR
300 PM AST SUN APR 21 2019

PRZ001>002-007>008-010-212000-
PUERTO RICO
  
CITY           SKY/WX    TMP DP  RH WIND       PRES   REMARKS
SAN JUAN LMM   MOSUNNY   84  72  65 E18       30.00F                  
AGUADILLA      PTSUNNY   82  72  69 E20       30.03F                  
CEIBA          MOSUNNY   86  70  58 MISG      30.03F HX  90           
$$

VIZ001>002-212000-
U.S. VIRGIN ISLANDS
  
CITY           SKY/WX    TMP DP  RH WIND       PRES   REMARKS
CHARLOTTE AMA  MOSUNNY   82  70  65 SE16      30.01F                  
CHRISTIANSTED  MOSUNNY   86  70  58 E16G24    30.01F HX  90           
$$

HOURLY WEATHER ROUNDUP FOR THE NEWS MEDIA
  
CITY           SKY/WX    TMP DP  RH WIND       PRES   REMARKS
ORLANDO        FAIR      75  38  26 W13G22    30.11F                  
NEW YORK       PTSUNNY   60  52  74 SE16      30.02F                  
NEWARK         PTSUNNY   63  47  55 E12       29.99F                  
CHICAGO        FAIR      74  38  27 S10       29.99F                  
HARTFORD       CLOUDY    63  61  93 SE8       30.04R                  
BOSTON         PTSUNNY   57  53  86 E7        30.03                   
DALLAS         MOSUNNY   79  55  43 S18G29    29.95F                  
PHILADELPHIA   FAIR      68  42  38 W8        29.98F                  
LOS ANGELES    MOSUNNY   65  49  56 W10       30.04S                  
WASHINGTON DC  PTSUNNY   67  44  43 VRB6      29.99S